Orbital Elements at Epoch 2459200.5 (2020-Dec-17.0) TDB
Reference: JPL 16 (heliocentric ecliptic J2000)
Element | Value | Uncertainty (1-sigma) | Units |
e | .5337714923814062 | 0.00049881 | |
a | .7181390308417728 | 0.00010214 | au |
q | .334816888612023 | 0.00040583 | au |
i | 8.696371453008307 | 0.015076 | deg |
node | 39.21174806484907 | 0.0035859 | deg |
peri | 195.5588163729064 | 0.0052707 | deg |
M | 16.44076934597432 | 1.6417 | deg |
tp | 2459190.348485027642 (2020-Dec-06.84848503) | 1.0115 | TDB |
period | 222.2855459585711 0.61 | 0.047422 0.0001298 | d yr |
n | 1.619538501469168 | 0.00034551 | deg/d |
Q | 1.101461173071522 | 0.00015665 | au |
|
| | Orbit Determination Parameters
Additional Information
|